{"data":{"norad_id":59108,"epoch":"2026-05-25T03:48:56.549376Z","epoch_age_seconds":54590,"freshness":"FRESH","line1":"1 59108U 24043L   26145.15898784  .00000875  00000+0  81637-4 0  9992","line2":"2 59108  97.8447 276.2683 0009439  74.2937 285.9325 14.96771552121190","mean_motion":14.96771552,"eccentricity":0.0009439,"inclination_deg":97.8447,"raan_deg":276.2683,"arg_perigee_deg":74.2937,"mean_anomaly_deg":285.9325,"bstar":8.1637e-5,"rev_number":12119,"period_min":96.207066340609,"perigee_km":570.31460395621,"apogee_km":583.44428399915,"semimajor_km":6955.0164439777,"source":"CELESTRAK","updated_at":"2026-05-25T13:38:01.191729Z"}}